PAGEOS 1 DEB, 2511

Orbit data source: Space-Track

PAGEOS 1 DEB, 2511 is space debris in LEO originally from a launch on Fri, 24 Jun 1966 UTC launched from the Air Force Western Test Range (AFWTR). Debris objects in space refer to the collection of defunct objects orbiting the Earth. Examples of debris include non-operational satellites, rocket bodies, and fragments generated from explosions, collisions, or faulty payload assembly.

Loading next visibility...
PAGEOS 1 DEB details
Identifier
2511, 1966-056D
Orbit
LEO
Last TLE update23 hours ago
Origin
Flag of USNASA LaRC (US)
ManufacturerGoodyear
MissionSpacecraft
Bus & MotorECHO CANISTER, Unknown motor
Mass9 kg wet, 9 kg dry
Launch date (UTC)
1966-06-24 (59 years ago)
Launch vehicleUnknown
Launch site
Air Force Western Test Range (AFWTR)
Object type
Payload
Rocket body
Debris
Shape & HBRHalf Sphere, Unknown HBR
Radar Cross Section0.377 m², Large (>1 m²)

Expand to show TLE details & history

TLE from 23 hours ago
0 PAGEOS 1 DEB
1 02511U 66056D   25024.05049862 -.00000030  00000-0 -31394-1 0  9995
2 02511  86.9789 269.4749 0012641 229.3386 130.6321  7.93367385312201
Epoch: 2025-01-24T01:12Z
Definitive object data (Epoch: 2025-01-24T01:12:43.08Z)
Latitude-0.00008°
Longitude127.67616°
Altitude4,251.725 km
Speed6.122 km/s
True Right ascension17h 57m 53s
True Declination0° 00' 00"
Sunlit
Object was in daylight at TLE epoch
Visualization TLE readout
Latitude-38.37271°
Longitude-50.02221°
Altitude4,241.815 km
Speed6.131 km/s
Apparent Right ascension08h 26m 25s
Apparent Declination-53° 03' 30"
Sunlit
Object is in daylight
Visualization observer readout
Local Sidereal Time01:31:30
Azimuth131.772° SE
Elevation-38.48°
Doppler factor1
Orbital elements
Apogee altitude4,252.283 km
Perigee altitude4,225.441 km
Semi-major axis10,616.999 km
Eccentricity0.0012641
Inclination86.9789°
RAAN269.4749°
Arg. of periapsis229.3386°
True anomaly130.74192°
Mean anomaly130.6321°
Eccentric anomaly130.68702°
Mean motion1.98399 °/min
BSTAR-0.031394
Orbital period181.45 mins
Loading maneuver chart data...

PAGEOS 1 DEB Visibility forecast

Observer location: undefined°, undefined

Span
Click to sort rows by Start time (UTC) header in descending order
Start Az.
Max El. time (UTC)
Max El. Az.
Max El.
End time (UTC)
End Az.
40 mins2025-01-25 02:13:43.162Z1.765° NNE2025-01-25 02:34:43.162Z74.579° E33.819°2025-01-25 02:53:43.162Z139.421° SSE
39 mins2025-01-25 05:17:43.162Z352.58° N2025-01-25 05:36:43.162Z281.763° WNW40.549°2025-01-25 05:56:43.162Z209.941° SW
6 mins2025-01-25 08:26:43.162Z325.382° NNW2025-01-25 08:28:43.162Z319.633° NNW10.597°2025-01-25 08:32:43.162Z308.147° NW
28 mins2025-01-25 13:42:43.162Z101.05° ESE2025-01-25 13:56:43.162Z56.796° ENE22.923°2025-01-25 14:10:43.162Z14.187° NNE
42 mins2025-01-25 16:32:43.162Z178.442° S2025-01-25 16:52:43.162Z235.803° WSW44.944°2025-01-25 17:14:43.162Z2.593° NNE
29 mins2025-01-25 19:46:43.162Z262.174° W2025-01-25 20:00:43.162Z306.297° NW20.419°2025-01-25 20:15:43.162Z352.439° N
|